Regional Weather Roundup
Issued by NWS State College, PA

Home | Current Version | Previous Version | Text Only | Print | Product List | Glossary On
Versions: 1 2 3 4 5 6 7 8 9 10 11 12 13 14 15 16 17 18 19 20 21 22 23 24 25 26 27 28 29 30 31 32 33 34 35 36 37 38 39 40 41 42 43 44 45 46 47 48 49 50
000
ASUS41 KCTP 261610
RWRCTP

REGIONAL WEATHER ROUNDUP
NATIONAL WEATHER SERVICE STATE COLLEGE PA
1200 PM EDT FRI MAY 26 2017

Note: "fair" indicates few or no clouds below 12,000 feet with no
significant weather and/or obstructions to visibility.

* = STATION THAT DOES NOT REPORT PRECIPITATION /E.G. RAIN...SNOW...ETC/
    THUNDER OR FOG.

PAZ002>004-007>009-013>016-020>023-029>032-261700-
WESTERN PENNSYLVANIA

CITY           SKY/WX    TMP DP  RH WIND       PRES   REMARKS
ERIE           CLOUDY    56  53  90 W14G21    29.80R
MEADVILLE      CLOUDY    55  53  93 NW9       29.82R
FRANKLIN*      CLOUDY    54  50  87 W13       29.82R
NEW CASTLE     CLOUDY    58  54  86 W8        29.85R
BEAVER COUNTY  RAIN      57  54  88 NW6       29.84R
BUTLER*        CLOUDY    57  54  88 W8        29.83R
PITTSBURGH INT LGT RAIN  58  56  93 NW14      29.83R
PITTSBURGH     CLOUDY    59  54  83 W10G16    29.82R
INDIANA*       PTSUNNY   59  57  94 NW6       29.83R FOG
LATROBE        LGT RAIN  57  57 100 W14G25    29.83R
WASHINGTON CO* CLOUDY    63  54  72 W12G20    29.87R
$$

PAZ004>006-010>012-017>019-024>028-033>037-041-042-045-046-049>053-261700-
CENTRAL PENNSYLVANIA

CITY           SKY/WX    TMP DP  RH WIND       PRES   REMARKS
BRADFORD       LGT RAIN  54  53  97 W14G20    29.76R FOG
DUBOIS         CLOUDY    60  51  72 W14G21    29.77R
CLEARFIELD     PTSUNNY   63  53  70 W18G30    29.76R
JOHNSTOWN      LGT RAIN  55  54  96 W16       29.80R FOG
ALTOONA        CLOUDY    62  56  80 NW12      29.78R
STATE COLLEGE  CLOUDY    63  54  72 W14       29.74R
WILLIAMSPORT   CLOUDY    69  56  62 W12G21    29.65S
SELINSGROVE    CLOUDY    70  57  63 NW12      29.69R
FT INDIANTOWN  CLOUDY    69  56  64 NW9G28    29.69R
CAPITAL CITY   LGT RAIN  73  55  53 W10G21    29.69S
HARRISBURG     CLOUDY    71  57  61 W18G24    29.68S
YORK           CLOUDY    69  58  67 W14G25    29.72R
$$

PAZ038>040-043-044-047-048-054-055-060>062-067>071-261700-
EASTERN PENNSYLVANIA

CITY           SKY/WX    TMP DP  RH WIND       PRES   REMARKS
SCRANTON       CLOUDY    65  56  72 W8        29.65S
MOUNT POCONO   CLOUDY    61  54  77 NW13G23   29.65S
ALLENTOWN      CLOUDY    69  56  62 W16G24    29.64R
QUAKERTOWN*    PTSUNNY   70  57  64 NW8       29.66S
READING        PTSUNNY   70  59  68 W17       29.67R
LANCASTER      CLOUDY    70  60  70 W12       29.69S
COATESVILLE    CLOUDY    68  57  68 NW14G22   29.70F
POTTSTOWN      CLOUDY    66  55  67 W8G25     29.68R
BLUE BELL      PTSUNNY   70  57  64 W8        29.67S
DOYLESTOWN     PTSUNNY   72  58  61 NW10G18   29.63S
WILLOW GROVE   NOT AVBL
NORTH PHILA    MOSUNNY   74  57  55 W20G31    29.66S
PHILADELPHIA   PTSUNNY   73  55  53 W15G24    29.66S
$$




USA.gov is the U.S. government's official web portal to all federal, state and local government web resources and services.